Weather History for Laramie, WY

Change the Weather History Date:

Wednesday, April 17, 2013

  Actual Average Record
Temperature  
Mean Temperature 14 °F 38 °F  
Max Temperature 22 °F 51 °F 72 °F (1987)
Min Temperature 5 °F 25 °F 0 °F (1999)
Degree Days  
Heating Degree Days 51 27  
Month to date heating degree days 585 494  
Since 1 July heating degree days 7550 7729  
Cooling Degree Days 0 0  
Month to date cooling degree days 0 0  
Year to date cooling degree days 0 0  
Moisture  
Dew Point 11 °F    
Average Humidity 83    
Maximum Humidity 92    
Minimum Humidity 74    
Precipitation  
Precipitation T in 0.04 in 0.53 in (1986)
Month to date precipitation 0.46 0.53  
Year to date precipitation 1.37 1.72  
Sea Level Pressure  
Sea Level Pressure 29.98 in    
Wind  
Wind Speed 15 mph (NE)    
Max Wind Speed 25 mph    
Max Gust Speed 30 mph    
Visibility 3 miles    
Events Fog , Snow    
T = Trace of Precipitation, MM = Missing Value Source: NWS Daily Summary

Daily Weather History Graph

Daily Weather History Graph

Search for Another Location

Airport:

Trip Planner

Search our weather history database for the weather conditions in past years. The results will help you decide how hot, cold, wet, or windy it might be!

Date:

Astronomy

Apr. 17, 2013 Rise Set
Actual Time 6:19 AM MDT 7:45 PM MDT
Civil Twilight 5:50 AM MDT 8:14 PM MDT
Nautical Twilight 5:16 AM MDT 8:49 PM MDT
Astronomical Twilight 4:39 AM MDT 9:25 PM MDT
Moon 11:34 AM MDT (4/17) 1:26 AM MDT (4/17)
Length of Visible Light 14h 23m
Length of Day
13h 25m
Waxing Crescent, 43% of the Moon is Illuminated
Apr 17
Waxing Crescent
Apr 18
First Quarter
Apr 25
Full
May 2
Last Quarter
May 9
New

Hourly Weather History & Observations

Time (MDT) Temp. Windchill Dew Point Humidity Pressure Visibility Wind Dir Wind Speed Gust Speed Precip Events Conditions
12:53 AM 21.0 °F 9.9 °F 16.0 °F 81% 29.98 in 9.0 mi SE 10.4 mph - 0.00 in Snow Light Snow
1:25 AM 21.2 °F 7.8 °F 17.6 °F 86% 29.89 in 4.0 mi ESE 15.0 mph - 0.00 in Snow Light Snow
1:53 AM 21.0 °F 9.3 °F 17.1 °F 85% 29.95 in 7.0 mi ESE 11.5 mph - 0.00 in Snow Light Snow
2:02 AM 21.2 °F 9.5 °F 15.8 °F 80% 29.88 in - ESE 11.5 mph - 0.00 in   Overcast
2:53 AM 21.0 °F 8.1 °F 16.0 °F 81% 29.94 in 4.0 mi ESE 13.8 mph - 0.00 in Snow Light Snow
3:07 AM 21.2 °F 8.3 °F 15.8 °F 80% 29.86 in - ESE 13.8 mph - 0.00 in Snow Light Snow
3:53 AM 21.0 °F 9.3 °F 16.0 °F 81% 29.93 in 10.0 mi East 11.5 mph - 0.00 in   Overcast
4:53 AM 21.0 °F 9.3 °F 15.1 °F 78% 29.94 in 9.0 mi ESE 11.5 mph - 0.00 in Snow Light Snow
5:24 AM 19.4 °F 7.9 °F 12.2 °F 74% 29.85 in - East 10.4 mph - 0.00 in Snow Light Snow
5:28 AM 17.6 °F 4.3 °F 12.2 °F 79% 29.85 in 1.8 mi East 12.7 mph - 0.00 in Snow Light Snow
5:45 AM 17.6 °F 3.7 °F 12.2 °F 79% 29.85 in 3.0 mi ENE 13.8 mph - 0.00 in Snow Light Snow
5:53 AM 18.0 °F 5.4 °F 12.0 °F 78% 29.96 in 8.0 mi East 11.5 mph - 0.00 in Snow Light Snow
6:53 AM 17.1 °F 3.6 °F 10.0 °F 74% 29.97 in 9.0 mi East 12.7 mph - 0.00 in Snow Light Snow
8:53 AM 16.0 °F -1.3 °F 10.0 °F 77% 29.96 in 5.0 mi ENE 20.7 mph 24.2 mph 0.00 in Snow Light Snow
9:12 AM 15.8 °F -1.1 °F 10.4 °F 79% 29.85 in 5.0 mi ENE 19.6 mph - 0.00 in Snow Light Snow
9:25 AM 15.8 °F -0.2 °F 10.4 °F 79% 29.84 in 2.0 mi ENE 17.3 mph - 0.00 in Snow Light Snow
9:32 AM 15.8 °F -0.6 °F 10.4 °F 79% 29.84 in 1.2 mi ENE 18.4 mph - 0.00 in Snow Light Snow
9:53 AM 16.0 °F -0.9 °F 10.9 °F 81% 29.97 in - ENE 19.6 mph 26.5 mph 0.00 in Snow Light Snow
10:33 AM 15.8 °F -1.1 °F 10.4 °F 79% 29.86 in 2.0 mi ENE 19.6 mph - 0.00 in Snow Light Snow
10:43 AM 15.8 °F -1.1 °F 10.4 °F 79% 29.86 in - ENE 19.6 mph - 0.00 in Snow Light Snow
10:53 AM 16.0 °F -1.3 °F 10.9 °F 81% 29.99 in 2.5 mi ENE 20.7 mph - 0.00 in Snow Light Snow
11:04 AM 15.8 °F -3.1 °F 10.4 °F 79% 29.86 in 1.2 mi ENE 25.3 mph 29.9 mph 0.00 in Snow Light Snow
11:53 AM 16.0 °F -0.9 °F 10.9 °F 81% 30.00 in 1.2 mi ENE 19.6 mph - 0.00 in Snow Light Snow
12:08 PM 15.8 °F -1.1 °F 10.4 °F 79% 29.88 in 2.5 mi ENE 19.6 mph - 0.00 in Snow Light Snow
12:15 PM 15.8 °F -1.5 °F 10.4 °F 79% 29.88 in - ENE 20.7 mph - 0.00 in Snow Light Snow
12:31 PM 17.6 °F 1.3 °F 12.2 °F 79% 29.87 in - ENE 19.6 mph - 0.00 in Snow Snow
12:41 PM 15.8 °F -1.5 °F 12.2 °F 86% 29.87 in 0.5 mi ENE 20.7 mph - 0.00 in Fog , Snow Snow
12:53 PM 16.0 °F -0.4 °F 12.0 °F 84% 30.01 in 0.5 mi ENE 18.4 mph - 0.00 in Fog , Snow Snow
1:08 PM 15.8 °F -1.1 °F 10.4 °F 79% 29.89 in 0.8 mi NE 19.6 mph - 0.00 in Snow Light Snow
1:19 PM 15.8 °F -1.5 °F 10.4 °F 79% 29.89 in 1.2 mi ENE 20.7 mph - 0.00 in Snow Light Snow
1:53 PM 17.1 °F -0.3 °F 10.9 °F 77% 30.03 in 1.2 mi NE 21.9 mph - 0.00 in Snow Light Snow
2:07 PM 17.6 °F 1.7 °F 10.4 °F 73% 29.90 in 2.0 mi NE 18.4 mph - 0.00 in Snow Light Snow
2:53 PM 17.1 °F 1.0 °F 10.0 °F 74% 30.04 in 9.0 mi ENE 18.4 mph - 0.00 in   Overcast
3:53 PM 17.1 °F 1.0 °F 10.9 °F 77% 30.05 in 3.0 mi NE 18.4 mph - 0.00 in Snow Light Snow
4:01 PM 17.6 °F 1.7 °F 10.4 °F 73% 29.92 in 2.5 mi NE 18.4 mph - 0.00 in Snow Light Snow
4:25 PM 17.6 °F 1.3 °F 10.4 °F 73% 29.93 in 3.0 mi NE 19.6 mph - 0.00 in Snow Light Snow
4:53 PM 17.1 °F 1.5 °F 10.9 °F 77% 30.07 in 2.5 mi NE 17.3 mph - 0.00 in Snow Light Snow
5:08 PM 15.8 °F 0.3 °F 10.4 °F 79% 29.94 in 5.0 mi NNE 16.1 mph - 0.00 in Snow Light Snow
5:30 PM 15.8 °F 0.9 °F 10.4 °F 79% 29.94 in 2.5 mi NNE 15.0 mph - 0.00 in Snow Light Snow
5:38 PM 15.8 °F 2.1 °F 10.4 °F 79% 29.95 in 3.0 mi North 12.7 mph - 0.00 in Snow Light Snow
5:45 PM 15.8 °F 2.7 °F 10.4 °F 79% 29.96 in 2.5 mi North 11.5 mph - 0.00 in Snow Light Snow
5:53 PM 15.1 °F 1.1 °F 10.0 °F 80% 30.12 in 2.0 mi North 12.7 mph - 0.00 in Snow Light Snow
6:10 PM 15.8 °F 1.4 °F 8.6 °F 73% 29.99 in - North 13.8 mph - 0.00 in Snow Light Snow
6:53 PM 14.0 °F -0.2 °F 9.0 °F 80% 30.15 in - NNE 12.7 mph - 0.00 in Snow Light Snow
7:04 PM 14.0 °F 0.5 °F 8.6 °F 79% 29.99 in 2.0 mi NNE 11.5 mph - 0.00 in Snow Light Snow
7:24 PM 14.0 °F 2.9 °F 8.6 °F 79% 30.00 in 3.0 mi NNE 8.1 mph - 0.00 in Snow Light Snow
7:53 PM 12.9 °F 1.6 °F 9.0 °F 84% 30.20 in - NE 8.1 mph - 0.00 in Snow Light Snow
8:02 PM 12.2 °F 2.9 °F 8.6 °F 85% 30.02 in 2.0 mi NE 5.8 mph - 0.00 in Snow Light Snow
8:21 PM 12.2 °F 2.9 °F 8.6 °F 85% 30.02 in 1.5 mi NNE 5.8 mph - 0.00 in Snow Light Snow
8:48 PM 12.2 °F 2.9 °F 10.4 °F 92% 30.04 in 1.0 mi NE 5.8 mph - 0.00 in Snow Light Snow
8:53 PM 12.0 °F 1.5 °F 9.0 °F 88% 30.23 in 1.0 mi NE 6.9 mph - 0.00 in Snow Light Snow
9:03 PM 12.2 °F 2.9 °F 8.6 °F 85% 30.04 in 1.2 mi NE 5.8 mph - 0.00 in Snow Light Snow
9:15 PM 12.2 °F 4.3 °F 8.6 °F 85% 30.04 in 2.5 mi NE 4.6 mph - 0.00 in Snow Light Snow
9:50 PM 10.4 °F 4.0 °F 8.6 °F 92% 30.04 in 3.0 mi North 3.5 mph - 0.00 in Snow Light Snow
9:51 PM 10.9 °F 2.9 °F 8.1 °F 88% 30.22 in 3.0 mi North 4.6 mph - 0.00 in Snow Light Snow
10:12 PM 10.4 °F - 8.6 °F 92% 30.04 in 8.0 mi Calm Calm - 0.00 in   Overcast
10:38 PM 10.4 °F - 6.8 °F 85% 30.05 in 3.0 mi Calm Calm - 0.00 in Snow Light Snow
10:43 PM 10.4 °F -0.4 °F 6.8 °F 85% 30.04 in 1.8 mi NW 6.9 mph - 0.00 in Snow Light Snow
10:53 PM 10.9 °F -4.1 °F 8.1 °F 88% 30.22 in 1.2 mi NW 12.7 mph - 0.00 in Snow Light Snow
11:04 PM 10.4 °F -4.1 °F 8.6 °F 92% 30.03 in 1.0 mi NW 11.5 mph - 0.00 in Snow Light Snow
11:12 PM 10.4 °F -4.1 °F 8.6 °F 92% 30.03 in - NW 11.5 mph - 0.00 in Snow Light Snow
11:36 PM 10.4 °F -4.8 °F 6.8 °F 85% 30.02 in 2.0 mi NW 12.7 mph - 0.00 in Snow Light Snow
11:45 PM 10.4 °F -5.4 °F 6.8 °F 85% 30.03 in 1.5 mi NW 13.8 mph - 0.00 in Snow Light Snow
11:53 PM 9.0 °F -6.6 °F 7.0 °F 92% 30.23 in 2.0 mi NW 12.7 mph - 0.00 in Snow Light Snow